[[{"header":{"parameterUnit":"m.s-1","parameterCategory":1,"la1":30.2991,"la2":30.254,"lo1":-89.0895,"lo2":-89.0444,"dy":0.0017,"dx":0.0017,"nx":28,"ny":28,"refTime":"2025-06-03T21:00:00:Z","depth":0,"parameterNumber":2,"parameterNumberName":"U-component_of_WINDS"},"data":[0,0,0,0,0,0,0,0,0,0,0,0,0,0,0,0,0,0,0,0,0,0,0,0,0,0,0,0,0,0,0,0,0,0,0,0,0,0,0,0,0,0,0,0,0,0,0,0,0,0,0,0,0,0,0,0,0,0,-0.68,-0.6799,0,-0.6747,-0.6747,-0.6746,-0.6687,-0.6686,-0.6685,-0.6684,-0.6631,-0.663,-0.663,0,0,0,0,0,0,0,0,0,0,0,0,0,-0.685,-0.685,-0.68,-0.6799,-0.6799,-0.6747,-0.6747,-0.6746,-0.6687,-0.6686,-0.6685,-0.6684,-0.6631,-0.663,-0.663,0,0,0,0,0,0,0,0,0,0,0,0,0,-0.6816,-0.685,-0.68,-0.6763,-0.6759,-0.6747,-0.6747,-0.6746,-0.6687,-0.6686,-0.6684,-0.6683,-0.6631,-0.663,-0.6629,-0.665,0,0,-0.6627,-0.6626,0,0,0,0,0,0,0,0,-0.6818,-0.6814,-0.6769,-0.6766,-0.6761,-0.6722,-0.6745,-0.6714,-0.6687,-0.6714,-0.6684,-0.6682,-0.6662,-0.6659,-0.6652,-0.6648,-0.6646,-0.6627,-0.6626,-0.6626,-0.6625,0,0,0,0,0,0,0,-0.6821,-0.6816,-0.6779,-0.6769,-0.6764,-0.6749,-0.6743,-0.6739,-0.6696,-0.6712,-0.6708,-0.6702,-0.666,-0.6653,-0.665,-0.6645,-0.6627,-0.6626,-0.6625,-0.6625,-0.6655,-0.6656,0,0,0,0,0,0,-0.6829,-0.6819,-0.6781,-0.6778,-0.6787,-0.6749,-0.6742,-0.6736,-0.6696,-0.6689,-0.6703,-0.6699,-0.6655,-0.6651,-0.6648,-0.667,-0.6626,-0.6625,-0.6624,-0.6654,-0.6655,-0.6657,0,0,0,0,0,0,-0.683,-0.6826,-0.6783,-0.6797,-0.679,-0.675,-0.6743,-0.6736,-0.6728,-0.669,-0.6682,-0.6704,-0.6654,-0.6649,-0.665,-0.6667,-0.6624,-0.6624,-0.6652,-0.6654,-0.6656,-0.6714,0,0,0,0,0,0,-0.6832,-0.6827,-0.6834,-0.6798,-0.679,-0.6786,-0.6744,-0.6736,-0.6727,-0.6722,-0.6688,-0.6681,-0.6652,-0.6652,-0.6649,-0.6665,-0.6623,-0.665,-0.6653,-0.6655,-0.671,-0.6717,-0.6724,0,0,0,0,0,-0.6834,-0.6853,-0.6835,-0.683,-0.6798,-0.6787,-0.6783,-0.6749,-0.6729,-0.6736,-0.6711,-0.6682,-0.6666,-0.6652,-0.6649,-0.6665,-0.6649,-0.6652,-0.6655,-0.6707,-0.6716,-0.6723,0,0,0,0,0,0,-0.6892,-0.6847,-0.6827,-0.6834,-0.6815,-0.6777,-0.6785,-0.6759,-0.6746,-0.6741,-0.67,-0.6693,-0.6699,-0.6682,-0.6668,-0.6683,-0.6653,-0.6656,-0.6694,-0.6702,-0.6709,-0.6713,-0.6622,0,0,0,0,0,-0.6906,-0.6901,-0.6861,-0.6872,-0.6863,-0.6826,-0.682,-0.6795,-0.6774,-0.6765,-0.674,-0.6721,-0.6711,-0.6705,-0.6694,-0.6707,-0.6699,-0.6716,-0.6723,-0.6729,-0.6732,-0.6737,-0.6744,-0.6667,-0.6667,-0.6667,0,0,-0.6935,-0.6909,-0.6909,-0.6883,-0.6865,-0.6861,-0.682,-0.6816,-0.6813,-0.6765,-0.6764,-0.6745,-0.672,-0.6728,-0.6729,-0.6713,-0.6751,-0.6733,-0.6738,-0.6737,-0.6741,-0.6748,-0.6755,-0.6669,-0.6668,-0.6668,0,0,-0.6985,-0.6965,-0.6971,-0.6954,-0.6927,-0.6902,-0.6904,-0.687,-0.6855,-0.6854,-0.6818,-0.6813,-0.6797,-0.6781,-0.677,-0.6814,-0.6787,-0.6811,-0.6847,-0.6853,-0.6859,-0.6864,-0.688,-0.6886,-0.6814,-0.6814,-0.6814,0,-0.7024,-0.7015,-0.6978,-0.6977,-0.6967,-0.6923,-0.693,-0.6915,-0.6886,-0.688,-0.6863,-0.6842,-0.6822,-0.6824,-0.6835,-0.6828,-0.6829,-0.6815,-0.6861,-0.6866,-0.687,-0.6885,-0.6891,-0.6817,-0.6817,-0.6817,-0.6816,0,-0.7065,-0.7059,-0.7068,-0.7041,-0.7032,-0.7035,-0.6998,-0.6993,-0.6969,-0.6946,-0.6945,-0.692,-0.6903,-0.6902,-0.6879,-0.6901,-0.6892,-0.6869,-0.6838,-0.6881,-0.6894,-0.6899,-0.6822,-0.6821,-0.682,-0.6819,0,0,-0.7151,-0.7103,-0.7107,-0.7094,-0.7061,-0.7056,-0.7057,-0.7039,-0.7036,-0.7018,-0.7018,-0.7005,-0.6983,-0.6971,-0.6946,-0.6951,-0.6987,-0.6926,-0.6925,-0.6939,-0.701,-0.7029,-0.7036,-0.6969,-0.697,-0.6971,-0.7012,0,-0.7195,-0.7194,-0.716,-0.7168,-0.7163,-0.712,-0.7121,-0.7101,-0.708,-0.7072,-0.7048,-0.704,-0.7011,-0.7004,-0.7007,-0.6982,-0.7001,-0.6978,-0.6969,-0.6969,-0.6977,-0.7042,-0.7062,-0.7102,-0.7017,-0.7018,-0.7019,0,-0.7247,-0.7231,-0.7238,-0.7205,-0.7201,-0.7202,-0.7184,-0.7177,-0.7153,-0.7137,-0.7124,-0.7095,-0.7094,-0.7065,-0.7063,-0.7048,-0.7042,-0.7029,-0.703,-0.7028,-0.6997,-0.7042,-0.7114,-0.7121,-0.7026,-0.7025,-0.7025,0,-0.7309,-0.729,-0.7291,-0.7281,-0.7242,-0.7244,-0.7228,-0.7203,-0.7195,-0.7179,-0.7173,-0.7157,-0.7149,-0.7137,-0.7105,-0.7087,-0.7106,-0.7075,-0.7093,-0.7094,-0.7099,-0.71,-0.7172,-0.7095,-0.7095,-0.7095,-0.7095,0,-0.7362,-0.7369,-0.7319,-0.732,-0.7326,-0.7287,-0.7294,-0.7274,-0.7252,-0.7248,-0.7211,-0.7209,-0.7166,-0.7159,-0.7134,-0.7136,-0.7132,-0.7119,-0.7112,-0.7123,-0.7125,-0.7119,-0.7115,-0.7097,-0.7096,-0.7096,-0.7096,0,-0.7433,-0.74,-0.7399,-0.7362,-0.7353,-0.7359,-0.7327,-0.7327,-0.7302,-0.7299,-0.7296,-0.7258,-0.7248,-0.7214,-0.7196,-0.7179,-0.7189,-0.7175,-0.7197,-0.7192,-0.7213,-0.7212,-0.7284,-0.7292,-0.721,-0.7211,-0.7212,0,-0.747,-0.7474,-0.7436,-0.7431,-0.7417,-0.7409,-0.74,-0.7362,-0.7355,-0.7328,-0.7331,-0.7317,-0.7305,-0.729,-0.7262,-0.7247,-0.7234,-0.726,-0.7231,-0.7242,-0.7234,-0.7235,-0.7235,-0.7267,-0.7268,-0.7269,-0.7269,0,-0.7538,-0.7521,-0.751,-0.7493,-0.7483,-0.7468,-0.7451,-0.7449,-0.7406,-0.74,-0.7389,-0.7379,-0.736,-0.7347,-0.7328,-0.7311,-0.7284,-0.7278,-0.7282,-0.7293,-0.7305,-0.7299,-0.7214,-0.7277,-0.7276,-0.7276,-0.7275,-0.7275,-0.7593,-0.7594,-0.7568,-0.7557,-0.754,-0.7524,-0.7522,-0.7497,-0.7487,-0.7468,-0.7446,-0.7438,-0.7414,-0.7385,-0.7371,-0.7364,-0.7349,-0.7354,-0.7355,-0.7357,-0.7362,-0.7306,-0.736,-0.736,-0.736,-0.7359,-0.7359,0,-0.766,-0.7641,-0.763,-0.7607,-0.7598,-0.7572,-0.7551,-0.7546,-0.7539,-0.7518,-0.7506,-0.7494,-0.7481,-0.7451,-0.7435,-0.7436,-0.7423,-0.7433,-0.7433,-0.743,-0.7377,-0.7375,-0.7444,-0.7444,-0.7444,-0.7444,-0.7444,-0.7444,-0.7693,-0.7694,-0.7674,-0.7666,-0.7647,-0.7638,-0.7629,-0.7614,-0.7598,-0.7585,-0.7574,-0.7554,-0.753,-0.7513,-0.75,-0.7491,-0.7488,-0.7503,-0.749,-0.7441,-0.7433,-0.7426,-0.7424,-0.7502,-0.7502,-0.7544,-0.7544,-0.7544]},{"header":{"parameterUnit":"m.s-1","parameterCategory":1,"la1":30.2991,"la2":30.254,"lo1":-89.0895,"lo2":-89.0444,"dy":0.0017,"dx":0.0017,"nx":28,"ny":28,"refTime":"2025-06-03T21:00:00:Z","depth":0,"parameterNumber":3,"parameterNumberName":"V-component_of_WINDS"},"data":[0,0,0,0,0,0,0,0,0,0,0,0,0,0,0,0,0,0,0,0,0,0,0,0,0,0,0,0,0,0,0,0,0,0,0,0,0,0,0,0,0,0,0,0,0,0,0,0,0,0,0,0,0,0,0,0,0,0,2.1051,2.1052,0,2.1066,2.1067,2.1067,2.1049,2.1048,2.1047,2.1047,2.1061,2.1062,2.1063,0,0,0,0,0,0,0,0,0,0,0,0,0,2.1005,2.1006,2.1051,2.1052,2.1052,2.1066,2.1067,2.1067,2.1049,2.1048,2.1047,2.1046,2.106,2.1062,2.1063,0,0,0,0,0,0,0,0,0,0,0,0,0,2.1023,2.1007,2.1051,2.1045,2.1044,2.1066,2.1067,2.1067,2.1049,2.1048,2.1047,2.1046,2.106,2.1061,2.1063,2.1092,0,0,2.1068,2.1068,0,0,0,0,0,0,0,0,2.1022,2.1025,2.1045,2.1045,2.1045,2.1055,2.1056,2.1075,2.1049,2.1047,2.1047,2.1045,2.1059,2.1061,2.1066,2.1093,2.1094,2.1068,2.1069,2.1069,2.107,0,0,0,0,0,0,0,2.1021,2.1024,2.1057,2.1046,2.1045,2.104,2.1042,2.1059,2.1059,2.1047,2.1046,2.1048,2.1059,2.1064,2.1066,2.1094,2.1068,2.1069,2.107,2.107,2.1145,2.1146,0,0,0,0,0,0,2.1021,2.1023,2.1057,2.1058,2.1031,2.1042,2.1043,2.1052,2.1058,2.1058,2.1049,2.1047,2.1062,2.1064,2.1067,2.1101,2.1069,2.1071,2.1071,2.1144,2.1145,2.1146,0,0,0,0,0,0,2.102,2.1024,2.1056,2.104,2.1044,2.1044,2.1054,2.1053,2.1059,2.106,2.1059,2.1055,2.1062,2.1064,2.1086,2.1101,2.1071,2.1073,2.1142,2.1144,2.1146,2.1169,0,0,0,0,0,0,2.1019,2.1024,2.1036,2.1041,2.1045,2.1076,2.1055,2.1054,2.1061,2.1059,2.1065,2.1065,2.1061,2.1084,2.1087,2.1102,2.1074,2.1141,2.1143,2.1145,2.1167,2.1172,2.1175,0,0,0,0,0,2.1017,2.1042,2.1036,2.104,2.106,2.1077,2.1079,2.1075,2.1063,2.1074,2.1075,2.1065,2.1099,2.1086,2.109,2.1106,2.114,2.1143,2.1145,2.1165,2.1171,2.1175,0,0,0,0,0,0,2.1038,2.1042,2.1036,2.1063,2.107,2.1074,2.1088,2.1081,2.109,2.1088,2.1081,2.1083,2.1106,2.1108,2.1094,2.1134,2.1117,2.1121,2.1132,2.1137,2.1141,2.1139,2.1075,0,0,0,0,0,2.1046,2.106,2.1063,2.1086,2.109,2.1088,2.1096,2.1092,2.1098,2.1101,2.1103,2.1109,2.1121,2.1129,2.114,2.1168,2.1168,2.118,2.1184,2.1188,2.119,2.1204,2.1209,2.1154,2.1154,2.1154,0,0,2.1062,2.1066,2.1075,2.109,2.1095,2.1109,2.1091,2.1107,2.1117,2.1103,2.1123,2.1125,2.1132,2.1156,2.1167,2.1158,2.1206,2.1191,2.1193,2.1194,2.1207,2.1212,2.1217,2.1156,2.1155,2.1155,0,0,2.1098,2.1103,2.1123,2.1128,2.1135,2.1134,2.1138,2.1144,2.1144,2.1165,2.1154,2.1166,2.1187,2.1192,2.1197,2.1235,2.1226,2.1238,2.1259,2.1273,2.1277,2.1281,2.1293,2.1298,2.1241,2.1241,2.1241,0,2.1117,2.1138,2.1134,2.115,2.1157,2.1145,2.1164,2.1169,2.118,2.1184,2.1175,2.1201,2.1204,2.1229,2.1238,2.1243,2.1248,2.1237,2.1277,2.1281,2.1284,2.1296,2.1301,2.1243,2.1243,2.1242,2.1242,0,2.1161,2.1176,2.1191,2.1201,2.1209,2.1227,2.1225,2.1233,2.1229,2.1228,2.1248,2.1252,2.1264,2.1269,2.1265,2.1294,2.1288,2.1278,2.1261,2.1291,2.1302,2.1307,2.1245,2.1244,2.1244,2.1244,0,0,2.1211,2.1218,2.1223,2.1228,2.1235,2.1246,2.1263,2.1274,2.1281,2.1289,2.1303,2.132,2.1311,2.1317,2.1313,2.1325,2.1353,2.1313,2.1313,2.132,2.1384,2.1391,2.1396,2.1347,2.1348,2.1349,2.1383,0,2.1246,2.1276,2.1272,2.13,2.1314,2.1302,2.1317,2.1322,2.1322,2.1333,2.1333,2.1345,2.1332,2.1336,2.1347,2.1347,2.1366,2.1345,2.1359,2.136,2.1357,2.1402,2.141,2.1442,2.1387,2.1388,2.1389,0,2.1292,2.1301,2.1331,2.1335,2.1341,2.1354,2.1363,2.1374,2.138,2.1379,2.1385,2.1379,2.1395,2.1378,2.14,2.1386,2.1392,2.1393,2.1394,2.1394,2.1376,2.1403,2.1452,2.1456,2.1396,2.1395,2.1394,0,2.1325,2.1344,2.1364,2.1369,2.1374,2.1384,2.1386,2.1391,2.1398,2.1406,2.141,2.142,2.1426,2.1433,2.1429,2.1418,2.1452,2.1435,2.1451,2.1451,2.1458,2.1457,2.1507,2.1463,2.1463,2.1463,2.1463,0,2.1365,2.1383,2.1379,2.1391,2.1411,2.1406,2.1426,2.1427,2.1431,2.1443,2.1434,2.1445,2.144,2.145,2.1447,2.1465,2.1468,2.1467,2.1466,2.1468,2.1468,2.1471,2.1468,2.1464,2.1464,2.1463,2.1463,0,2.1404,2.1402,2.1423,2.1427,2.1428,2.1442,2.1445,2.1456,2.1455,2.147,2.1473,2.1472,2.1484,2.1481,2.1494,2.1492,2.1515,2.1511,2.1513,2.1511,2.1527,2.1525,2.158,2.1587,2.1539,2.1539,2.154,0,2.1429,2.1443,2.1448,2.1455,2.1459,2.1471,2.1478,2.1473,2.148,2.1487,2.1497,2.1509,2.1517,2.1537,2.1537,2.1546,2.1542,2.1561,2.1544,2.1545,2.1542,2.1541,2.1542,2.1564,2.1565,2.1565,2.1566,0,2.1474,2.1473,2.1483,2.1493,2.1501,2.1509,2.1515,2.1522,2.1517,2.1526,2.1538,2.1545,2.1558,2.1569,2.1578,2.158,2.1572,2.1571,2.1575,2.1577,2.1577,2.1576,2.1521,2.157,2.1569,2.1569,2.1569,2.1569,2.1507,2.1518,2.1523,2.1535,2.1539,2.1545,2.1556,2.1556,2.1566,2.1577,2.1573,2.1587,2.1591,2.1602,2.1606,2.1616,2.1609,2.1615,2.1616,2.1618,2.1619,2.1576,2.1618,2.1618,2.1617,2.1617,2.1617,0,2.1551,2.1553,2.1564,2.1573,2.1582,2.1574,2.1581,2.1589,2.1601,2.1606,2.1614,2.1628,2.1638,2.1639,2.1649,2.1657,2.1653,2.1659,2.1658,2.1659,2.1626,2.1621,2.1662,2.1662,2.1662,2.1662,2.1662,2.1662,2.1574,2.1593,2.1592,2.1612,2.1614,2.1628,2.1632,2.1637,2.1641,2.1657,2.1666,2.1666,2.1669,2.1679,2.1688,2.1687,2.1691,2.1698,2.1697,2.1666,2.1661,2.1657,2.1652,2.1699,2.1699,2.1729,2.1729,2.1729]}]]